This is the latest recevied weather packets stored in our database for station/object HARMAJA. If no packets are shown the sender has not sent any weather packets the latest 1 day(s).
| Time | Temp. | Humidity | Pressure | Rain* | Wind** | Luminosity | Snow |
|---|---|---|---|---|---|---|---|
| 1778087241 | 6.11° C | 76% | 1014.1 hPa | - | - | - | - |
| 1778086040 | 6.67° C | 73% | 1014 hPa | - | - | - | - |
| 1778084841 | 6.11° C | 77% | 1014 hPa | - | - | - | - |
| 1778077640 | 6.67° C | 73% | 1014.3 hPa | - | - | - | - |
| 1778076440 | 7.22° C | 67% | 1014.2 hPa | - | - | - | - |
| 1778075240 | 6.67° C | 67% | 1014.3 hPa | - | - | - | - |
| 1778065640 | 6.67° C | 73% | 1014.2 hPa | - | - | - | - |
| 1778064440 | 6.67° C | 75% | 1014.1 hPa | - | - | - | - |
| 1778059640 | 6.67° C | 76% | 1013.6 hPa | - | - | - | - |
| 1778058440 | 6.67° C | 76% | 1013.5 hPa | - | - | - | - |
| 1778057240 | 6.11° C | 75% | 1013.4 hPa | - | - | - | - |
| 1778056040 | 6.11° C | 77% | 1013.4 hPa | - | - | - | - |
| 1778054840 | 6.11° C | 75% | 1013.2 hPa | - | - | - | - |
| 1778053640 | 6.11° C | 78% | 1013.1 hPa | - | - | - | - |
| 1778051240 | 6.11° C | 73% | 1012.8 hPa | - | - | - | - |
| 1778050040 | 6.11° C | 70% | 1012.8 hPa | - | - | - | - |
| 1778048840 | 5.56° C | 70% | 1012.7 hPa | - | - | - | - |
| 1778047640 | 5.56° C | 73% | 1012.5 hPa | - | - | - | - |
| 1778045240 | 5° C | 71% | 1012 hPa | - | - | - | - |
| 1778042840 | 4.44° C | 75% | 1011.6 hPa | - | - | - | - |
| 1778041639 | 3.89° C | 76% | 1011.5 hPa | - | - | - | - |
| 1778040439 | 3.89° C | 76% | 1011.3 hPa | - | - | - | - |
| 1778039239 | 3.89° C | 78% | 1011.2 hPa | - | - | - | - |
| 1778038039 | 3.33° C | 77% | 1010.9 hPa | - | - | - | - |
| 1778036839 | 3.33° C | 78% | 1010.7 hPa | - | - | - | - |
* Rain since midnight (hover to see other rain measurements)
** Current wind speed in m/s (hover to see current wind gust speed)